TimePDT,TemperatureF,Dew PointF,Humidity,Sea Level PressureIn,VisibilityMPH,Wind Direction,Wind SpeedMPH,Gust SpeedMPH,PrecipitationIn,Events,Conditions,WindDirDegrees,DateUTC
12:15 AM,32.0,-0.4,25,30.47,10.0,Calm,Calm,-,N/A,,Clear,0,2013-10-06 07:15:00
12:35 AM,30.2,-2.2,25,30.47,10.0,NW,5.8,-,N/A,,Clear,320,2013-10-06 07:35:00
12:55 AM,30.2,-2.2,25,30.47,10.0,North,3.5,-,N/A,,Clear,350,2013-10-06 07:55:00
1:15 AM,30.2,-0.4,27,30.47,10.0,Calm,Calm,-,N/A,,Clear,0,2013-10-06 08:15:00
1:35 AM,30.2,-2.2,25,30.47,10.0,Calm,Calm,-,N/A,,Clear,0,2013-10-06 08:35:00
1:55 AM,26.6,-2.2,29,30.46,10.0,Calm,Calm,-,N/A,,Clear,0,2013-10-06 08:55:00
2:15 AM,24.8,-4.0,28,30.46,10.0,North,3.5,-,N/A,,Clear,360,2013-10-06 09:15:00
2:35 AM,28.4,-0.4,29,30.46,10.0,North,3.5,-,N/A,,Clear,360,2013-10-06 09:35:00
2:55 AM,26.6,-2.2,29,30.45,10.0,Calm,Calm,-,N/A,,Clear,0,2013-10-06 09:55:00
3:15 AM,23.0,-4.0,31,30.44,10.0,Calm,Calm,-,N/A,,Clear,0,2013-10-06 10:15:00
3:35 AM,26.6,-2.2,29,30.44,10.0,Calm,Calm,-,N/A,,Clear,0,2013-10-06 10:35:00
3:55 AM,24.8,-2.2,31,30.44,10.0,Calm,Calm,-,N/A,,Clear,0,2013-10-06 10:55:00
4:15 AM,21.2,-4.0,33,30.43,10.0,North,4.6,-,N/A,,Clear,360,2013-10-06 11:15:00
4:35 AM,24.8,-2.2,31,30.43,10.0,North,-9999.0,-,N/A,,Clear,0,2013-10-06 11:35:00
4:55 AM,24.8,-2.2,31,30.43,10.0,NW,3.5,-,N/A,,Clear,320,2013-10-06 11:55:00
5:15 AM,21.2,-4.0,33,30.43,10.0,Calm,Calm,-,N/A,,Clear,0,2013-10-06 12:15:00
5:35 AM,21.2,-4.0,33,30.43,10.0,Calm,Calm,-,N/A,,Clear,0,2013-10-06 12:35:00
5:55 AM,23.0,-2.2,33,30.42,10.0,Calm,Calm,-,N/A,,Clear,0,2013-10-06 12:55:00
6:15 AM,23.0,-2.2,33,30.43,10.0,NW,3.5,-,N/A,,Clear,320,2013-10-06 13:15:00
6:35 AM,23.0,-0.4,36,30.43,10.0,North,-9999.0,-,N/A,,Clear,0,2013-10-06 13:35:00
6:55 AM,23.0,-2.2,33,30.43,10.0,NW,3.5,-,N/A,,Clear,320,2013-10-06 13:55:00
7:15 AM,21.2,-2.2,36,30.43,10.0,NW,3.5,-,N/A,,Clear,310,2013-10-06 14:15:00
7:35 AM,19.4,-0.4,42,30.43,10.0,NNW,3.5,-,N/A,,Clear,330,2013-10-06 14:35:00
7:55 AM,21.2,-0.4,39,30.43,10.0,Calm,Calm,-,N/A,,Clear,0,2013-10-06 14:55:00
8:15 AM,28.4,-0.4,29,30.43,10.0,Calm,Calm,-,N/A,,Clear,0,2013-10-06 15:15:00
8:35 AM,35.6,-0.4,22,30.43,10.0,Calm,Calm,-,N/A,,Clear,0,2013-10-06 15:35:00
8:55 AM,41.0,-0.4,18,30.43,10.0,Calm,Calm,-,N/A,,Clear,0,2013-10-06 15:55:00
9:15 AM,42.8,6.8,23,30.43,10.0,SE,4.6,-,N/A,,Clear,140,2013-10-06 16:15:00
9:35 AM,44.6,8.6,23,30.43,10.0,Calm,Calm,-,N/A,,Clear,0,2013-10-06 16:35:00
9:55 AM,48.2,6.8,19,30.42,10.0,SSE,3.5,-,N/A,,Clear,150,2013-10-06 16:55:00
10:15 AM,51.8,6.8,16,30.42,10.0,SE,4.6,-,N/A,,Clear,140,2013-10-06 17:15:00
10:35 AM,55.4,6.8,14,30.42,10.0,SE,3.5,-,N/A,,Clear,140,2013-10-06 17:35:00
10:55 AM,59.0,5.0,12,30.41,10.0,SSE,4.6,-,N/A,,Clear,150,2013-10-06 17:55:00
11:15 AM,62.6,5.0,10,30.41,10.0,SE,3.5,-,N/A,,Clear,130,2013-10-06 18:15:00
11:35 AM,64.4,5.0,10,30.40,10.0,SE,3.5,-,N/A,,Clear,140,2013-10-06 18:35:00
11:55 AM,66.2,6.8,10,30.39,10.0,SE,4.6,-,N/A,,Clear,130,2013-10-06 18:55:00
12:15 PM,68.0,5.0,8,30.38,7.0,SSE,3.5,-,N/A,,Clear,150,2013-10-06 19:15:00
12:35 PM,68.0,3.2,8,30.38,10.0,ESE,6.9,-,N/A,,Clear,120,2013-10-06 19:35:00
12:55 PM,69.8,-4.0,5,30.37,10.0,ESE,8.1,-,N/A,,Clear,110,2013-10-06 19:55:00
1:15 PM,69.8,-5.8,5,30.36,10.0,ESE,8.1,-,N/A,,Clear,110,2013-10-06 20:15:00
1:35 PM,71.6,-0.4,6,30.35,10.0,ESE,9.2,-,N/A,,Clear,110,2013-10-06 20:35:00
1:55 PM,71.6,1.4,6,30.34,10.0,East,6.9,-,N/A,,Clear,90,2013-10-06 20:55:00
2:15 PM,71.6,1.4,6,30.33,10.0,ESE,8.1,-,N/A,,Clear,120,2013-10-06 21:15:00
2:35 PM,71.6,1.4,6,30.33,10.0,ESE,10.4,-,N/A,,Clear,120,2013-10-06 21:35:00
2:55 PM,71.6,3.2,7,30.32,10.0,ESE,11.5,-,N/A,,Clear,110,2013-10-06 21:55:00
3:15 PM,71.6,1.4,6,30.32,10.0,ESE,12.7,-,N/A,,Clear,110,2013-10-06 22:15:00
3:35 PM,71.6,3.2,7,30.31,10.0,East,13.8,18.4,N/A,,Clear,100,2013-10-06 22:35:00
3:55 PM,69.8,3.2,7,30.31,10.0,ESE,15.0,-,N/A,,Clear,110,2013-10-06 22:55:00
4:15 PM,68.0,3.2,8,30.30,10.0,ESE,15.0,-,N/A,,Clear,110,2013-10-06 23:15:00
4:35 PM,68.0,3.2,8,30.31,10.0,East,11.5,-,N/A,,Clear,100,2013-10-06 23:35:00
4:55 PM,68.0,6.8,9,30.31,10.0,East,9.2,-,N/A,,Clear,100,2013-10-06 23:55:00
5:15 PM,64.4,6.8,10,30.31,10.0,ESE,10.4,-,N/A,,Clear,110,2013-10-07 00:15:00
5:35 PM,64.4,8.6,11,30.31,10.0,East,9.2,-,N/A,,Clear,100,2013-10-07 00:35:00
5:55 PM,62.6,6.8,11,30.31,10.0,ESE,8.1,-,N/A,,Clear,110,2013-10-07 00:55:00
6:15 PM,60.8,6.8,12,30.31,10.0,East,3.5,-,N/A,,Clear,100,2013-10-07 01:15:00
6:35 PM,57.2,5.0,12,30.31,10.0,South,3.5,-,N/A,,Clear,190,2013-10-07 01:35:00
6:55 PM,50.0,3.2,15,30.31,10.0,Calm,Calm,-,N/A,,Clear,0,2013-10-07 01:55:00
7:15 PM,48.2,1.4,15,30.31,10.0,Calm,Calm,-,N/A,,Clear,0,2013-10-07 02:15:00
7:35 PM,46.4,1.4,16,30.32,10.0,Calm,Calm,-,N/A,,Clear,0,2013-10-07 02:35:00
7:55 PM,42.8,-0.4,16,30.32,10.0,NW,3.5,-,N/A,,Clear,310,2013-10-07 02:55:00
8:15 PM,41.0,-0.4,18,30.32,10.0,NNE,4.6,-,N/A,,Clear,20,2013-10-07 03:15:00
8:35 PM,44.6,1.4,17,30.32,10.0,NNW,3.5,-,N/A,,Clear,330,2013-10-07 03:35:00
8:55 PM,41.0,3.2,21,30.32,10.0,NW,3.5,-,N/A,,Clear,310,2013-10-07 03:55:00
9:15 PM,41.0,3.2,21,30.32,10.0,North,3.5,-,N/A,,Clear,350,2013-10-07 04:15:00
9:35 PM,39.2,3.2,22,30.32,10.0,North,6.9,-,N/A,,Clear,360,2013-10-07 04:35:00
9:55 PM,39.2,3.2,22,30.33,10.0,Calm,Calm,-,N/A,,Clear,0,2013-10-07 04:55:00
10:15 PM,37.4,1.4,22,30.32,10.0,North,3.5,-,N/A,,Clear,10,2013-10-07 05:15:00
10:35 PM,35.6,3.2,26,30.32,10.0,NW,3.5,-,N/A,,Clear,310,2013-10-07 05:35:00
10:55 PM,37.4,1.4,22,30.32,10.0,North,3.5,-,N/A,,Clear,350,2013-10-07 05:55:00
11:15 PM,35.6,1.4,24,30.32,10.0,Calm,Calm,-,N/A,,Clear,0,2013-10-07 06:15:00
11:35 PM,37.4,1.4,22,30.31,10.0,Calm,Calm,-,N/A,,Clear,0,2013-10-07 06:35:00
11:55 PM,35.6,1.4,24,30.31,10.0,Calm,Calm,-,N/A,,Clear,0,2013-10-07 06:55:00